QPF
0.02 0.02 0.02 0.01 0.01 0.03 0.03 0.02 0.02 0.03 0.02 0.02 0.04 0.06 0.04 0.02 0.01 0.01 0.02 0.03 0.06 0.07 0.07 0.07 0.05 0.05 0.05 0.06 0.05 0.03 0.02 0.02 0.02 0.01 0.01 0.02 0.02 0.02 0.02 0.02 0.01 0.01 0.01
0.03 0.03 0.02 0.01 0.00 0.01 0.01 0.02 0.01 0.02 0.02 0.02 0.03 0.04 0.04 0.02 0.02 0.02 0.02 0.04 0.06 0.05 0.05 0.05 0.05 0.05 0.05 0.05 0.05 0.05 0.04 0.04 0.03 0.03 0.03 0.02 0.02 0.02 0.03 0.03 0.01 0.01 0.01
0.03 0.04 0.03 0.02 0.02 0.01 0.02 0.03 0.03 0.03 0.02 0.02 0.03 0.04 0.03 0.02 0.03 0.02 0.01 0.02 0.02 0.04 0.06 0.05 0.05 0.06 0.07 0.07 0.08 0.07 0.06 0.06 0.05 0.04 0.03 0.03 0.02 0.03 0.03 0.02 0.02 0.02 0.02
0.03 0.03 0.03 0.03 0.04 0.03 0.02 0.03 0.05 0.05 0.03 0.02 0.03 0.03 0.03 0.03 0.03 0.01 0.01 0.01 0.01 0.01 0.03 0.06 0.05 0.05 0.07 0.08 0.09 0.10 0.09 0.07 0.06 0.04 0.04 0.03 0.03 0.04 0.03 0.03 0.02 0.02 0.03
0.03 0.03 0.03 0.05 0.04 0.04 0.04 0.05 0.07 0.05 0.03 0.03 0.03 0.04 0.04 0.04 0.04 0.02 0.02 0.01 0.01 0.02 0.02 0.05 0.08 0.08 0.07 0.10 0.12 0.13 0.11 0.08 0.07 0.07 0.06 0.04 0.04 0.03 0.03 0.03 0.02 0.03 0.03
0.04 0.03 0.03 0.05 0.05 0.04 0.03 0.06 0.08 0.06 0.05 0.05 0.03 0.03 0.03 0.02 0.03 0.02 0.02 0.02 0.04 0.05 0.04 0.04 0.07 0.07 0.08 0.10 0.12 0.14 0.14 0.14 0.11 0.07 0.07 0.06 0.06 0.04 0.03 0.03 0.03 0.03 0.04
0.06 0.05 0.06 0.06 0.06 0.04 0.04 0.05 0.05 0.05 0.06 0.05 0.03 0.04 0.03 0.02 0.03 0.03 0.02 0.04 0.05 0.06 0.05 0.04 0.04 0.05 0.06 0.08 0.12 0.16 0.16 0.15 0.14 0.12 0.13 0.11 0.09 0.08 0.07 0.06 0.04 0.03 0.03
0.08 0.07 0.08 0.08 0.06 0.05 0.05 0.04 0.04 0.05 0.05 0.05 0.04 0.04 0.02 0.02 0.02 0.02 0.03 0.03 0.04 0.04 0.04 0.04 0.04 0.04 0.05 0.05 0.05 0.06 0.09 0.13 0.17 0.18 0.17 0.13 0.09 0.09 0.08 0.08 0.07 0.07 0.05
0.08 0.09 0.09 0.10 0.08 0.06 0.05 0.03 0.04 0.04 0.05 0.05 0.03 0.02 0.01 0.02 0.03 0.02 0.01 0.02 0.03 0.02 0.02 0.03 0.04 0.04 0.05 0.06 0.06 0.06 0.07 0.08 0.12 0.16 0.17 0.14 0.11 0.09 0.08 0.06 0.06 0.06 0.06
0.06 0.07 0.07 0.08 0.09 0.07 0.05 0.04 0.04 0.03 0.04 0.04 0.03 0.02 0.03 0.02 0.02 0.02 0.01 0.01 0.01 0.01 0.02 0.02 0.03 0.06 0.08 0.08 0.06 0.05 0.04 0.04 0.07 0.12 0.15 0.16 0.15 0.13 0.10 0.09 0.08 0.08 0.07
0.05 0.06 0.07 0.08 0.10 0.09 0.07 0.04 0.03 0.02 0.03 0.04 0.04 0.03 0.04 0.04 0.03 0.03 0.02 0.01 0.01 0.01 0.02 0.02 0.03 0.05 0.07 0.07 0.05 0.05 0.05 0.05 0.07 0.09 0.13 0.14 0.12 0.10 0.09 0.08 0.06 0.07 0.07
0.02 0.04 0.06 0.08 0.08 0.09 0.07 0.05 0.04 0.02 0.02 0.03 0.04 0.04 0.04 0.05 0.04 0.04 0.02 0.01 0.02 0.03 0.02 0.02 0.02 0.03 0.06 0.07 0.06 0.06 0.06 0.07 0.06 0.06 0.07 0.07 0.09 0.10 0.10 0.09 0.08 0.08 0.08
0.01 0.02 0.04 0.07 0.07 0.06 0.06 0.05 0.04 0.03 0.03 0.04 0.05 0.05 0.06 0.06 0.06 0.04 0.04 0.03 0.03 0.03 0.03 0.03 0.02 0.01 0.02 0.02 0.03 0.02 0.02 0.04 0.05 0.05 0.05 0.05 0.07 0.09 0.11 0.11 0.10 0.10 0.09
0.01 0.01 0.02 0.05 0.06 0.05 0.05 0.04 0.04 0.05 0.07 0.05 0.04 0.04 0.05 0.06 0.07 0.05 0.05 0.05 0.05 0.03 0.03 0.03 0.02 0.01 0.01 0.02 0.03 0.04 0.03 0.05 0.06 0.06 0.06 0.06 0.07 0.07 0.07 0.07 0.08 0.08 0.07
0.02 0.02 0.03 0.03 0.04 0.05 0.06 0.06 0.05 0.06 0.07 0.06 0.05 0.04 0.04 0.05 0.05 0.05 0.04 0.04 0.05 0.03 0.01 0.01 0.01 0.01 0.02 0.02 0.03 0.03 0.03 0.05 0.06 0.06 0.05 0.05 0.05 0.05 0.05 0.06 0.07 0.06 0.05
0.02 0.02 0.03 0.03 0.04 0.05 0.05 0.04 0.04 0.04 0.04 0.05 0.07 0.07 0.05 0.05 0.05 0.04 0.03 0.03 0.04 0.03 0.02 0.02 0.01 0.02 0.03 0.02 0.02 0.02 0.02 0.03 0.04 0.05 0.05 0.05 0.05 0.06 0.06 0.05 0.06 0.07 0.07
0.02 0.02 0.03 0.03 0.04 0.04 0.04 0.04 0.05 0.05 0.05 0.05 0.06 0.05 0.05 0.06 0.06 0.04 0.03 0.02 0.03 0.02 0.02 0.02 0.01 0.01 0.02 0.02 0.03 0.02 0.03 0.03 0.04 0.07 0.08 0.08 0.08 0.07 0.07 0.06 0.06 0.07 0.07
0.07 0.08 0.08 0.06 0.06 0.08 0.09 0.08 0.06 0.05 0.04 0.03 0.02 0.03 0.03 0.04 0.05 0.04 0.03 0.02 0.03 0.03 0.02 0.02 0.01 0.01 0.01 0.02 0.03 0.03 0.04 0.04 0.05 0.08 0.10 0.09 0.09 0.08 0.06 0.05 0.05 0.04 0.04
0.09 0.09 0.07 0.06 0.07 0.07 0.05 0.04 0.04 0.03 0.03 0.02 0.03 0.02 0.02 0.03 0.03 0.02 0.02 0.02 0.02 0.02 0.02 0.02 0.01 0.01 0.01 0.02 0.02 0.03 0.03 0.03 0.04 0.05 0.06 0.06 0.06 0.05 0.06 0.06 0.06 0.05 0.04
0.05 0.04 0.04 0.03 0.03 0.03 0.03 0.03 0.03 0.03 0.02 0.02 0.01 0.01 0.01 0.02 0.02 0.02 0.02 0.02 0.02 0.02 0.02 0.02 0.01 0.01 0.01 0.02 0.03 0.03 0.04 0.04 0.04 0.04 0.04 0.05 0.06 0.04 0.05 0.06 0.07 0.07 0.07
0.06 0.04 0.04 0.04 0.03 0.03 0.03 0.05 0.05 0.04 0.04 0.03 0.03 0.02 0.01 0.01 0.02 0.02 0.02 0.03 0.04 0.03 0.03 0.02 0.01 0.02 0.03 0.04 0.05 0.05 0.04 0.05 0.06 0.05 0.04 0.04 0.04 0.04 0.04 0.04 0.05 0.05 0.05
0.08 0.06 0.05 0.04 0.03 0.03 0.03 0.04 0.05 0.04 0.04 0.04 0.03 0.03 0.02 0.01 0.02 0.02 0.03 0.04 0.04 0.03 0.02 0.02 0.02 0.02 0.02 0.04 0.04 0.03 0.03 0.03 0.04 0.04 0.03 0.02 0.02 0.02 0.02 0.02 0.03 0.03 0.04
0.15 0.10 0.08 0.06 0.04 0.03 0.04 0.04 0.05 0.05 0.04 0.03 0.03 0.03 0.02 0.02 0.02 0.02 0.02 0.03 0.03 0.03 0.03 0.03 0.02 0.02 0.02 0.02 0.04 0.03 0.03 0.03 0.02 0.02 0.02 0.01 0.01 0.01 0.01 0.02 0.03 0.04 0.05
0.20 0.19 0.14 0.09 0.05 0.03 0.04 0.04 0.05 0.06 0.04 0.04 0.04 0.04 0.03 0.03 0.03 0.03 0.02 0.02 0.02 0.03 0.04 0.04 0.03 0.02 0.02 0.03 0.03 0.03 0.03 0.02 0.01 0.01 0.02 0.01 0.01 0.01 0.02 0.02 0.03 0.04 0.06
0.17 0.15 0.11 0.07 0.05 0.03 0.05 0.07 0.08 0.07 0.05 0.05 0.06 0.06 0.05 0.04 0.05 0.04 0.03 0.02 0.02 0.02 0.03 0.02 0.02 0.02 0.02 0.03 0.03 0.03 0.04 0.04 0.04 0.03 0.03 0.03 0.03 0.04 0.04 0.05 0.06 0.07 0.06
0.08 0.07 0.06 0.05 0.04 0.04 0.07 0.09 0.10 0.08 0.07 0.07 0.07 0.06 0.06 0.05 0.05 0.05 0.03 0.02 0.02 0.02 0.03 0.02 0.02 0.02 0.02 0.03 0.04 0.04 0.04 0.05 0.06 0.06 0.06 0.06 0.06 0.07 0.07 0.06 0.06 0.06 0.05
MSLP
1014.07 1014.31 1014.53 1014.74 1014.94 1015.17 1015.41 1015.67 1015.94 1016.21 1016.45 1016.66 1016.83 1016.97 1017.10 1017.23 1017.40 1017.60 1017.85 1018.14 1018.45 1018.75 1019.03 1019.27 1019.45 1019.58 1019.67 1019.75 1019.83 1019.92 1020.05 1020.21 1020.39 1020.58 1020.77 1020.93 1021.07 1021.17 1021.24 1021.28 1021.29 1021.30 1021.30
1013.98 1014.22 1014.45 1014.68 1014.92 1015.17 1015.45 1015.74 1016.04 1016.34 1016.61 1016.84 1017.02 1017.16 1017.27 1017.37 1017.48 1017.62 1017.81 1018.04 1018.31 1018.60 1018.88 1019.14 1019.36 1019.54 1019.67 1019.77 1019.85 1019.94 1020.04 1020.16 1020.31 1020.47 1020.64 1020.80 1020.93 1021.03 1021.09 1021.12 1021.12 1021.10 1021.08
1013.84 1014.07 1014.31 1014.57 1014.83 1015.12 1015.43 1015.76 1016.10 1016.43 1016.73 1016.99 1017.19 1017.34 1017.43 1017.50 1017.56 1017.64 1017.75 1017.91 1018.12 1018.37 1018.65 1018.92 1019.17 1019.38 1019.55 1019.69 1019.79 1019.87 1019.95 1020.05 1020.16 1020.29 1020.42 1020.55 1020.66 1020.75 1020.80 1020.81 1020.80 1020.77 1020.73
1013.67 1013.90 1014.15 1014.42 1014.72 1015.04 1015.38 1015.74 1016.11 1016.47 1016.80 1017.09 1017.31 1017.46 1017.56 1017.60 1017.61 1017.63 1017.67 1017.76 1017.90 1018.10 1018.34 1018.60 1018.86 1019.10 1019.31 1019.47 1019.60 1019.69 1019.76 1019.83 1019.91 1020.00 1020.09 1020.19 1020.27 1020.33 1020.36 1020.37 1020.34 1020.30 1020.25
1013.51 1013.74 1014.00 1014.29 1014.61 1014.96 1015.33 1015.72 1016.10 1016.48 1016.83 1017.13 1017.37 1017.54 1017.63 1017.66 1017.64 1017.60 1017.58 1017.59 1017.66 1017.79 1017.98 1018.21 1018.47 1018.72 1018.94 1019.13 1019.28 1019.39 1019.46 1019.52 1019.57 1019.63 1019.68 1019.73 1019.78 1019.81 1019.82 1019.81 1019.78 1019.74 1019.70
1013.40 1013.62 1013.89 1014.21 1014.55 1014.92 1015.31 1015.70 1016.10 1016.48 1016.83 1017.14 1017.38 1017.56 1017.66 1017.68 1017.65 1017.58 1017.50 1017.44 1017.44 1017.49 1017.61 1017.80 1018.02 1018.25 1018.48 1018.69 1018.85 1018.98 1019.06 1019.12 1019.16 1019.19 1019.21 1019.24 1019.25 1019.26 1019.25 1019.24 1019.21 1019.17 1019.13
1013.34 1013.56 1013.85 1014.18 1014.55 1014.93 1015.33 1015.73 1016.11 1016.48 1016.82 1017.12 1017.37 1017.55 1017.66 1017.69 1017.65 1017.57 1017.45 1017.34 1017.27 1017.24 1017.29 1017.40 1017.56 1017.77 1017.98 1018.18 1018.36 1018.50 1018.60 1018.67 1018.71 1018.73 1018.74 1018.75 1018.75 1018.74 1018.73 1018.72 1018.70 1018.68 1018.67
1013.33 1013.56 1013.86 1014.21 1014.60 1015.00 1015.40 1015.78 1016.15 1016.49 1016.81 1017.09 1017.33 1017.52 1017.65 1017.69 1017.67 1017.58 1017.45 1017.30 1017.17 1017.07 1017.03 1017.06 1017.16 1017.30 1017.48 1017.66 1017.84 1017.99 1018.11 1018.20 1018.26 1018.29 1018.31 1018.32 1018.33 1018.33 1018.33 1018.34 1018.35 1018.36 1018.38
1013.35 1013.59 1013.90 1014.27 1014.68 1015.09 1015.49 1015.86 1016.20 1016.51 1016.80 1017.06 1017.29 1017.48 1017.62 1017.70 1017.70 1017.63 1017.50 1017.33 1017.15 1016.99 1016.87 1016.82 1016.83 1016.91 1017.03 1017.18 1017.35 1017.51 1017.65 1017.76 1017.85 1017.92 1017.97 1018.01 1018.05 1018.08 1018.12 1018.16 1018.21 1018.26 1018.32
1013.36 1013.60 1013.93 1014.32 1014.74 1015.16 1015.55 1015.91 1016.22 1016.50 1016.76 1016.99 1017.21 1017.41 1017.57 1017.68 1017.72 1017.68 1017.56 1017.39 1017.19 1016.98 1016.81 1016.67 1016.61 1016.61 1016.68 1016.79 1016.94 1017.09 1017.25 1017.40 1017.53 1017.64 1017.74 1017.83 1017.92 1018.00 1018.09 1018.18 1018.28 1018.38 1018.49
1013.31 1013.56 1013.89 1014.30 1014.73 1015.15 1015.54 1015.88 1016.17 1016.42 1016.64 1016.86 1017.07 1017.28 1017.46 1017.60 1017.68 1017.68 1017.60 1017.45 1017.25 1017.02 1016.80 1016.61 1016.49 1016.43 1016.44 1016.52 1016.64 1016.80 1016.97 1017.14 1017.32 1017.48 1017.64 1017.79 1017.94 1018.08 1018.23 1018.38 1018.53 1018.69 1018.83
1013.19 1013.44 1013.77 1014.18 1014.60 1015.02 1015.40 1015.72 1015.99 1016.21 1016.41 1016.61 1016.82 1017.03 1017.24 1017.42 1017.54 1017.59 1017.56 1017.45 1017.26 1017.04 1016.81 1016.60 1016.44 1016.35 1016.33 1016.37 1016.48 1016.63 1016.82 1017.02 1017.23 1017.44 1017.65 1017.86 1018.07 1018.28 1018.49 1018.70 1018.90 1019.09 1019.27
1012.99 1013.23 1013.56 1013.94 1014.36 1014.75 1015.11 1015.41 1015.65 1015.86 1016.04 1016.23 1016.43 1016.65 1016.88 1017.09 1017.26 1017.36 1017.38 1017.32 1017.19 1017.00 1016.80 1016.60 1016.45 1016.35 1016.32 1016.36 1016.47 1016.62 1016.81 1017.03 1017.27 1017.52 1017.77 1018.03 1018.29 1018.56 1018.82 1019.07 1019.31 1019.53 1019.73
1012.74 1012.96 1013.26 1013.62 1014.00 1014.36 1014.68 1014.95 1015.17 1015.36 1015.53 1015.71 1015.91 1016.13 1016.37 1016.61 1016.82 1016.97 1017.05 1017.05 1016.98 1016.86 1016.72 1016.57 1016.46 1016.40 1016.40 1016.46 1016.58 1016.74 1016.95 1017.18 1017.43 1017.70 1017.98 1018.28 1018.57 1018.87 1019.17 1019.45 1019.72 1019.95 1020.15
1012.45 1012.65 1012.92 1013.23 1013.56 1013.88 1014.16 1014.40 1014.59 1014.76 1014.91 1015.08 1015.27 1015.49 1015.74 1015.99 1016.22 1016.41 1016.55 1016.62 1016.63 1016.59 1016.54 1016.48 1016.45 1016.46 1016.52 1016.63 1016.78 1016.97 1017.19 1017.43 1017.69 1017.97 1018.26 1018.56 1018.88 1019.19 1019.51 1019.80 1020.07 1020.31 1020.50
1012.15 1012.32 1012.55 1012.81 1013.09 1013.36 1013.60 1013.81 1013.97 1014.11 1014.25 1014.40 1014.58 1014.79 1015.03 1015.28 1015.52 1015.74 1015.92 1016.05 1016.14 1016.20 1016.25 1016.31 1016.38 1016.49 1016.64 1016.81 1017.02 1017.25 1017.49 1017.74 1018.00 1018.27 1018.56 1018.86 1019.17 1019.49 1019.81 1020.10 1020.37 1020.59 1020.77
1011.83 1011.99 1012.18 1012.40 1012.63 1012.86 1013.06 1013.23 1013.37 1013.50 1013.62 1013.75 1013.91 1014.10 1014.32 1014.55 1014.78 1015.01 1015.21 1015.39 1015.55 1015.70 1015.86 1016.03 1016.23 1016.45 1016.70 1016.96 1017.23 1017.50 1017.77 1018.04 1018.30 1018.56 1018.84 1019.13 1019.44 1019.75 1020.05 1020.34 1020.60 1020.82 1020.98
1011.48 1011.62 1011.79 1011.99 1012.19 1012.39 1012.57 1012.72 1012.85 1012.96 1013.07 1013.18 1013.32 1013.48 1013.66 1013.86 1014.07 1014.29 1014.50 1014.71 1014.92 1015.15 1015.40 1015.67 1015.98 1016.31 1016.66 1017.01 1017.35 1017.67 1017.97 1018.25 1018.51 1018.77 1019.04 1019.33 1019.62 1019.93 1020.23 1020.52 1020.77 1020.99 1021.15
1011.05 1011.19 1011.37 1011.55 1011.75 1011.95 1012.12 1012.28 1012.40 1012.51 1012.61 1012.72 1012.83 1012.96 1013.11 1013.27 1013.45 1013.63 1013.83 1014.05 1014.29 1014.57 1014.89 1015.25 1015.64 1016.06 1016.50 1016.92 1017.32 1017.69 1018.02 1018.32 1018.59 1018.85 1019.12 1019.41 1019.70 1020.01 1020.32 1020.62 1020.88 1021.10 1021.26
1010.52 1010.67 1010.86 1011.06 1011.28 1011.49 1011.69 1011.86 1012.01 1012.13 1012.24 1012.34 1012.44 1012.55 1012.66 1012.78 1012.92 1013.07 1013.25 1013.46 1013.71 1014.01 1014.37 1014.78 1015.23 1015.71 1016.20 1016.68 1017.12 1017.53 1017.89 1018.20 1018.49 1018.77 1019.05 1019.34 1019.65 1019.98 1020.31 1020.62 1020.90 1021.14 1021.32
1009.88 1010.05 1010.25 1010.49 1010.74 1010.99 1011.22 1011.43 1011.61 1011.77 1011.90 1012.01 1012.10 1012.20 1012.29 1012.39 1012.49 1012.61 1012.77 1012.96 1013.20 1013.50 1013.87 1014.29 1014.77 1015.28 1015.79 1016.30 1016.77 1017.19 1017.57 1017.91 1018.22 1018.52 1018.82 1019.14 1019.48 1019.83 1020.19 1020.53 1020.84 1021.10 1021.31
1009.16 1009.33 1009.56 1009.82 1010.11 1010.40 1010.68 1010.93 1011.16 1011.35 1011.51 1011.64 1011.76 1011.85 1011.94 1012.03 1012.12 1012.23 1012.36 1012.53 1012.76 1013.05 1013.41 1013.83 1014.30 1014.81 1015.32 1015.82 1016.30 1016.73 1017.12 1017.48 1017.81 1018.13 1018.47 1018.82 1019.20 1019.59 1019.98 1020.36 1020.69 1020.98 1021.21
1008.44 1008.59 1008.81 1009.09 1009.40 1009.72 1010.03 1010.33 1010.60 1010.83 1011.02 1011.19 1011.34 1011.46 1011.57 1011.67 1011.77 1011.88 1012.01 1012.18 1012.39 1012.67 1013.01 1013.41 1013.86 1014.34 1014.83 1015.32 1015.78 1016.21 1016.61 1016.98 1017.33 1017.69 1018.05 1018.45 1018.86 1019.29 1019.71 1020.11 1020.48 1020.78 1021.02
1007.80 1007.90 1008.09 1008.34 1008.65 1008.97 1009.30 1009.62 1009.92 1010.18 1010.41 1010.62 1010.81 1010.97 1011.12 1011.26 1011.39 1011.52 1011.67 1011.85 1012.07 1012.34 1012.66 1013.04 1013.46 1013.92 1014.38 1014.85 1015.29 1015.71 1016.11 1016.49 1016.87 1017.25 1017.65 1018.08 1018.52 1018.98 1019.43 1019.85 1020.22 1020.53 1020.77
1007.33 1007.35 1007.47 1007.66 1007.92 1008.22 1008.53 1008.84 1009.14 1009.43 1009.69 1009.94 1010.17 1010.39 1010.59 1010.77 1010.95 1011.13 1011.32 1011.53 1011.76 1012.04 1012.36 1012.73 1013.13 1013.56 1014.00 1014.45 1014.88 1015.30 1015.70 1016.09 1016.49 1016.89 1017.32 1017.77 1018.24 1018.71 1019.17 1019.59 1019.96 1020.26 1020.49
1007.08 1006.99 1007.00 1007.10 1007.28 1007.51 1007.77 1008.05 1008.34 1008.62 1008.91 1009.19 1009.46 1009.72 1009.97 1010.22 1010.46 1010.69 1010.92 1011.17 1011.44 1011.73 1012.07 1012.44 1012.84 1013.26 1013.70 1014.14 1014.57 1014.99 1015.40 1015.81 1016.23 1016.65 1017.10 1017.57 1018.05 1018.52 1018.97 1019.38 1019.73 1020.01 1020.21
Thickness
5750 5750 5749 5749 5748 5747 5746 5746 5746 5746 5745 5746 5746 5747 5747 5747 5747 5747 5747 5747 5746 5746 5746 5745 5744 5743 5741 5740 5738 5737 5735 5734 5732 5731 5729 5728 5727 5725 5724 5723 5721 5720 5719
5751 5750 5749 5748 5748 5747 5746 5746 5745 5745 5745 5745 5746 5747 5747 5747 5747 5747 5747 5747 5747 5746 5746 5746 5745 5744 5742 5740 5739 5737 5736 5734 5733 5731 5730 5728 5727 5725 5724 5723 5722 5720 5719
5751 5750 5749 5748 5748 5747 5746 5745 5745 5744 5744 5745 5745 5746 5746 5747 5747 5747 5747 5747 5747 5747 5747 5746 5746 5744 5743 5741 5740 5738 5737 5735 5733 5732 5730 5728 5727 5726 5724 5723 5722 5720 5719
5752 5750 5749 5748 5748 5747 5746 5745 5744 5743 5743 5743 5743 5744 5745 5746 5747 5747 5747 5748 5748 5748 5748 5747 5746 5745 5743 5742 5741 5739 5738 5736 5734 5732 5730 5729 5727 5726 5724 5723 5722 5720 5719
5752 5751 5750 5749 5748 5746 5745 5745 5743 5742 5741 5741 5742 5743 5744 5746 5747 5747 5748 5748 5748 5748 5747 5747 5746 5745 5744 5742 5741 5740 5739 5737 5735 5733 5731 5729 5728 5726 5725 5723 5722 5720 5719
5753 5751 5750 5749 5747 5746 5745 5744 5742 5742 5741 5741 5742 5742 5743 5745 5746 5747 5748 5748 5748 5748 5747 5746 5745 5744 5743 5742 5742 5741 5740 5738 5736 5734 5732 5730 5728 5726 5725 5723 5722 5721 5719
5754 5752 5751 5749 5747 5746 5744 5743 5742 5740 5739 5740 5737 5737 5740 5744 5745 5746 5747 5747 5747 5747 5746 5746 5745 5744 5743 5742 5742 5741 5740 5738 5737 5735 5733 5731 5729 5727 5725 5724 5722 5721 5719
5755 5754 5752 5750 5748 5746 5744 5743 5741 5738 5738 5738 5735 5732 5731 5735 5740 5745 5745 5745 5745 5745 5745 5744 5744 5743 5742 5741 5741 5741 5740 5739 5737 5735 5733 5731 5729 5727 5726 5724 5722 5721 5719
5758 5756 5754 5751 5749 5746 5744 5743 5741 5739 5736 5736 5737 5733 5728 5726 5732 5739 5741 5743 5743 5743 5743 5743 5743 5742 5741 5740 5740 5740 5739 5738 5737 5735 5733 5731 5729 5727 5725 5724 5722 5720 5719
5759 5757 5755 5752 5749 5746 5745 5743 5741 5740 5737 5734 5734 5735 5734 5733 5729 5730 5736 5739 5741 5741 5742 5742 5742 5741 5740 5740 5739 5739 5738 5737 5736 5734 5732 5730 5728 5727 5725 5723 5721 5719 5718
5760 5758 5756 5753 5750 5747 5746 5743 5742 5740 5739 5736 5734 5733 5732 5731 5731 5727 5727 5732 5736 5739 5740 5740 5740 5740 5739 5738 5738 5737 5736 5735 5734 5732 5731 5729 5727 5725 5724 5722 5720 5719 5717
5760 5759 5757 5754 5751 5749 5747 5745 5742 5741 5739 5737 5736 5735 5733 5731 5729 5727 5726 5727 5729 5735 5737 5738 5738 5737 5736 5736 5735 5735 5734 5733 5731 5730 5729 5727 5726 5724 5722 5721 5719 5718 5716
5760 5759 5758 5755 5752 5751 5748 5746 5743 5741 5739 5737 5736 5735 5734 5733 5732 5729 5727 5725 5726 5730 5732 5734 5735 5734 5734 5733 5732 5732 5731 5730 5729 5727 5726 5725 5723 5722 5720 5719 5717 5716 5714
5762 5762 5759 5757 5754 5752 5749 5747 5744 5742 5740 5738 5737 5735 5734 5733 5732 5730 5728 5725 5722 5723 5726 5728 5731 5731 5731 5730 5729 5728 5727 5727 5726 5724 5723 5722 5720 5718 5717 5716 5714 5713 5711
5764 5762 5760 5757 5754 5751 5749 5747 5744 5742 5740 5738 5736 5735 5733 5733 5732 5730 5729 5727 5722 5718 5720 5724 5726 5728 5727 5726 5725 5724 5723 5723 5722 5721 5720 5718 5716 5715 5713 5712 5710 5709 5708
5764 5762 5760 5757 5754 5751 5748 5746 5743 5741 5739 5737 5736 5733 5732 5731 5730 5729 5728 5726 5724 5721 5719 5722 5722 5723 5723 5722 5720 5720 5719 5718 5718 5717 5715 5714 5712 5711 5709 5707 5706 5704 5703
5762 5761 5759 5756 5753 5750 5748 5745 5743 5741 5738 5736 5734 5732 5730 5729 5728 5727 5726 5724 5722 5721 5718 5719 5720 5720 5719 5718 5717 5716 5715 5713 5712 5711 5710 5709 5707 5706 5704 5702 5700 5699 5697
5761 5759 5757 5755 5752 5749 5746 5743 5741 5739 5736 5734 5733 5730 5729 5727 5726 5725 5723 5721 5720 5720 5717 5715 5715 5715 5714 5714 5712 5711 5710 5709 5707 5706 5705 5703 5702 5700 5699 5697 5695 5693 5692
5759 5758 5755 5752 5750 5748 5746 5743 5740 5737 5735 5733 5731 5729 5727 5725 5723 5722 5720 5719 5718 5717 5715 5713 5711 5711 5710 5709 5707 5706 5705 5703 5702 5701 5699 5698 5696 5695 5693 5691 5690 5688 5686
5756 5754 5752 5750 5748 5746 5744 5742 5739 5736 5733 5731 5729 5728 5726 5724 5722 5720 5718 5716 5714 5712 5710 5708 5706 5705 5704 5703 5702 5700 5698 5698 5697 5696 5694 5692 5690 5689 5687 5685 5684 5682 5680
5752 5750 5748 5745 5743 5741 5740 5738 5735 5732 5729 5728 5726 5725 5724 5723 5722 5719 5717 5714 5711 5708 5705 5703 5701 5699 5698 5696 5696 5695 5693 5692 5690 5689 5688 5686 5685 5683 5681 5680 5678 5676 5674
5746 5744 5742 5741 5739 5739 5737 5734 5731 5728 5726 5724 5722 5722 5721 5719 5717 5716 5714 5713 5710 5706 5702 5699 5697 5695 5695 5694 5692 5689 5687 5684 5683 5683 5681 5680 5678 5677 5676 5674 5673 5670 5668
5739 5737 5736 5736 5735 5734 5733 5731 5728 5724 5722 5720 5719 5717 5717 5715 5712 5711 5709 5707 5705 5703 5701 5698 5694 5693 5691 5690 5687 5683 5681 5680 5679 5678 5674 5673 5672 5670 5669 5668 5666 5664 5661
5734 5732 5730 5730 5729 5728 5727 5725 5723 5720 5718 5717 5715 5714 5711 5709 5707 5704 5703 5700 5699 5697 5695 5693 5691 5690 5688 5686 5683 5681 5678 5674 5671 5669 5667 5666 5665 5663 5662 5660 5658 5655 5652
5726 5725 5724 5723 5723 5723 5722 5720 5717 5714 5712 5711 5709 5708 5706 5704 5702 5698 5695 5693 5692 5691 5689 5688 5686 5684 5682 5679 5677 5673 5670 5667 5665 5663 5659 5658 5657 5655 5653 5651 5649 5647 5644
5720 5720 5719 5718 5718 5717 5716 5713 5710 5708 5706 5704 5703 5701 5699 5698 5696 5692 5689 5687 5685 5684 5682 5680 5678 5676 5674 5672 5669 5668 5665 5661 5659 5656 5653 5650 5649 5646 5645 5643 5640 5637 5634